Regional Weather Roundup
Issued by NWS

Home | Current Version | Previous Version | Text Only | Print | Product List | Glossary On
Versions: 1 2 3 4 5 6 7 8 9 10 11 12 13 14 15 16 17 18 19 20 21 22 23 24 25 26 27 28 29 30 31 32 33 34 35 36 37 38 39 40 41 42 43 44 45 46 47 48 49 50
000
ASUS46 KSEW 301610
RWRWA

WASHINGTON REGIONAL WEATHER ROUNDUP
NATIONAL WEATHER SERVICE SEATTLE WA
900 AM PDT TUE SEP 30 2014

NOTE:"FAIR" INDICATES FEW OR NO CLOUDS BELOW 12,000 FEET WITH NO
SIGNIFICANT WEATHER AND/OR OBSTRUCTIONS TO VISIBILITY.

WAZ505-507>509-301700-
SEATTLE, TACOMA, EVERETT, AND VICINITY

CITY           SKY/WX    TMP DP  RH WIND       PRES   REMARKS
EVERETT        PTSUNNY   55  52  89 S6        30.07R
BOEING FIELD   PTSUNNY   57  51  80 S7        30.07R
RENTON         CLOUDY    57  53  86 SE5       30.07R
SEATAC AIRPORT PTSUNNY   56  51  84 S6        30.08R
JBLM-MCCHORD   CLOUDY    55  54  97 S8        30.08R
PUYALLUP       NOT AVBL
JBLM-FT LEWIS  DRIZZLE   55  55  99 SE5       30.07R
TACOMA NARROWS MOSUNNY   55  51  86 S6        30.07R
$$

WAZ001-503-506-510-514-515-301700-
NORTH INTERIOR

CITY           SKY/WX    TMP DP  RH WIND       PRES   REMARKS
BELLINGHAM     MOSUNNY   56  51  84 S3        30.03R
FRIDAY HARBOR  MOSUNNY   56  51  84 SW6       30.05R
EASTSOUND      SUNNY     55  50  82 S5        30.02R
PORT ANGELES   CLOUDY    58  47  66 W12       30.07R
NAS WHIDBEY    MOSUNNY   57  51  80 W15       30.05R
BURLINGTON     CLOUDY    55  54  94 SW5       30.05R
$$

WAZ020-022-039-040-504-511-512-301700-
SOUTHWEST INTERIOR

CITY           SKY/WX    TMP DP  RH WIND       PRES   REMARKS
SHELTON        SUNNY     55  51  86 W9        30.04R
OLYMPIA        MOSUNNY   58  51  78 S14       30.07R
CHEHALIS       FAIR      55  55 100 S6        30.10R
KELSO          CLOUDY    55  52  88 SE5       30.15S
VANCOUVER      CLOUDY    56  53  90 CALM      30.12R
SCAPPOOSE, OR  CLOUDY    54  53  97 CALM      30.12R FOG
PORTLAND, OR   CLOUDY    56  55  97 SW5       30.13R
$$

WAZ021-516-517-301700-
WASHINGTON COAST

CITY           SKY/WX    TMP DP  RH WIND       PRES   REMARKS
FORKS          MOSUNNY   54  53  97 CALM      30.09R FOG
HOQUIAM        SUNNY     58  55  90 W10       30.10R
ASTORIA, OR    PTSUNNY   57  54  89 CALM      30.12R
$$

WAZ019-023-024-040-518-519-301700-
CASCADE MOUNTAINS AND COLUMBIA GORGE

CITY           SKY/WX    TMP DP  RH WIND       PRES   REMARKS
STAMPEDE PASS  FOG       41  40  96 VRB6      30.04  VSB 1/4
TROUTDALE, OR  CLOUDY    58  53  84 W3        30.12R
THE DALLES, OR SUNNY     63  44  50 W24G31    30.02R
$$

WAZ026-027-041>044-520-521-301700-
EAST SLOPES

CITY           SKY/WX    TMP DP  RH WIND       PRES   REMARKS
OMAK           SUNNY     56  40  55 SE5       29.90R
WENATCHEE      SUNNY     59  38  45 W3        29.93R
ELLENSBURG     PTSUNNY   57  42  57 W17       29.98R
YAKIMA         MOSUNNY   54  42  64 CALM      29.98R
$$

WAZ028-034-035-301700-
COLUMBIA BASIN

CITY           SKY/WX    TMP DP  RH WIND       PRES   REMARKS
EPHRATA        SUNNY     64  35  34 NW12G18   29.90S
MOSES LAKE     SUNNY     57  40  52 W10       29.93R
PASCO          SUNNY     60  46  59 SW9       29.98R
HERMISTON, OR  SUNNY     60  44  55 W14       30.00R
$$

WAZ036>038-301700-
NORTHEAST WASHINGTON

CITY           SKY/WX    TMP DP  RH WIND       PRES   REMARKS
SPOKANE GEIGER LGT RAIN  48  41  76 SW13      29.89R
SPOKANE FELTS  PTSUNNY   51  41  68 SW13      29.90R
FAIRCHILD AFB  CLOUDY    48  40  73 SW10      29.89R
COEURDALENE,ID CLOUDY    48  45  87 S9        29.89S
DEER PARK      MOSUNNY   49  45  86 S10       29.88R
$$

WAZ029>033-301700-
SOUTHEAST WASHINGTON

CITY           SKY/WX    TMP DP  RH WIND       PRES   REMARKS
PULLMAN        SUNNY     52  42  69 SW17G24   29.96R
LEWISTON, ID   CLOUDY    58  41  53 W10       29.95R
WALLA WALLA    CLOUDY    57  44  62 S10       30.01R
PENDLETON, OR  MOSUNNY   58  41  53 W21G30    30.00S
$$


USA.gov is the U.S. government's official web portal to all federal, state and local government web resources and services.